Location: Bonnesvalyn
(49.1218°N, 3.3177°E)
Time: 19:06:36
(UTC+00:00)

Cosmos 1850 Rocket - Visible Passes

Search period start: 01 October 2023 00:00
Search period end: 11 October 2023 00:00
Orbit: 752 x 785 km, 74.0° (Epoch: 30 September)

Date Brightness Start Highest point End Pass type
(mag) Time Alt. Az. Time Alt. Az. Time Alt. Az.
01 Oct 6.9 05:08:44 10° NNE 05:10:01 11° NE 05:11:19 10° NE visible
01 Oct 6.9 23:21:23 12° N 23:21:23 12° N 23:21:52 10° N visible
02 Oct 6.9 22:45:01 11° NNE 22:45:01 11° NNE 22:45:10 10° NNE visible
03 Oct 7.0 23:48:55 10° N 23:48:55 10° N 23:49:00 10° N visible
04 Oct 6.7 04:58:44 10° N 05:01:46 15° NE 05:04:46 10° ENE visible
04 Oct 7.0 23:12:31 11° N 23:12:31 11° N 23:12:42 10° N visible
05 Oct 7.0 04:23:05 10° NNE 04:24:15 11° NE 04:25:25 10° NE visible
05 Oct 7.0 22:36:07 10° N 22:36:07 10° N 22:36:08 10° N visible
07 Oct 6.5 04:49:23 10° N 04:53:23 21° NE 04:57:21 10° E visible
08 Oct 6.8 04:13:01 10° N 04:15:59 15° NE 04:18:57 10° ENE visible
09 Oct 7.1 03:37:27 10° NNE 03:38:28 10° NE 03:39:30 10° NE visible
09 Oct 5.4 05:16:58 10° NNW 05:22:05 43° ENE 05:27:08 10° SE visible
10 Oct 6.0 04:40:14 10° N 04:44:54 29° NE 04:49:31 10° ESE visible
